Anchorage Merrill, AK

2:30 AM AKST on December 18, 2017 (GMT -0900)
Merrill

Weather History for PAMR - February, 2011

Change the Weather History Date:

Wednesday, February 2, 2011

  Actual Average Record
Temperature  
Mean Temperature 34 °F -  
Max Temperature 37 °F 23 °F 23 °F (2014)
Min Temperature 32 °F 11 °F 0 °F (2015)
Degree Days  
Heating Degree Days 30    
Moisture  
Dew Point 30 °F    
Average Humidity 84    
Maximum Humidity 89    
Minimum Humidity 75    
Precipitation  
Precipitation 0.00 in - - ()
Snow  
Snow 0.00 in - - ()
Snow Depth 7.00 in    
Sea Level Pressure  
Sea Level Pressure 29.23 in    
Wind  
Wind Speed 1 mph (NW)    
Max Wind Speed 6 mph    
Max Gust Speed -    
Visibility 6 miles    
Events Fog , Rain , Snow    
Averages and records for this station are not official NWS values.
T = Trace of Precipitation, MM = Missing Value Source: NWS Daily Summary

Daily Weather History Graph

Daily Weather History Graph

Search for Another Location

Airport or City:

Trip Planner

Search our weather history database for the weather conditions in past years. The results will help you decide how hot, cold, wet, or windy it might be!

Date:

Astronomy

Feb. 02, 2011 Rise Set
Actual Time 9:17 AM AKST 5:09 PM AKST
Civil Twilight 8:28 AM AKST 5:59 PM AKST
Nautical Twilight 7:35 AM AKST 6:51 PM AKST
Astronomical Twilight 6:45 AM AKST 7:42 PM AKST
Moon 8:49 AM AKST (2/2) 5:25 PM AKST (2/2)
Length of Visible Light 9h 30m
Length of Day
7h 52m
Waning Crescent, 0% of the Moon is Illuminated
Feb 2
Waning Crescent
Feb 2
New
Feb 10
First Quarter
Feb 17
Full
Feb 24
Last Quarter

Hourly Weather History & Observations

Time (AKST) Temp. Windchill Dew Point Humidity Pressure Visibility Wind Dir Wind Speed Gust Speed Precip Events Conditions
12:11 AM 33.8 °F - 30.2 °F 87% 29.27 in 5.0 mi Calm Calm - N/A   Overcast
12:53 AM 34.0 °F - 30.0 °F 85% 29.29 in 5.0 mi Calm Calm - N/A   Overcast
1:53 AM 33.1 °F - 30.0 °F 89% 29.29 in 2.0 mi Calm Calm - N/A   Overcast
2:25 AM 33.8 °F - 28.4 °F 81% 29.28 in 1.0 mi Calm Calm - N/A   Overcast
2:49 AM 33.8 °F - 30.2 °F 87% 29.28 in 0.5 mi Calm Calm - N/A Fog Fog
2:53 AM 33.1 °F - 28.9 °F 85% 29.29 in 0.5 mi Calm Calm - N/A Fog Fog
3:14 AM 32.0 °F - 28.4 °F 87% 29.28 in 0.2 mi Calm Calm - N/A Fog Fog
3:53 AM 32.0 °F 28.7 °F 28.9 °F 88% 29.27 in 0.1 mi SSW 3.5 mph - N/A Fog Fog
4:53 AM 33.1 °F 30.0 °F 30.0 °F 89% 29.26 in 0.5 mi WNW 3.5 mph - N/A Fog Fog
5:49 AM 33.8 °F - 28.4 °F 81% 29.25 in 0.8 mi Calm Calm - N/A   Overcast
5:53 AM 33.1 °F - 30.0 °F 89% 29.26 in 0.8 mi Calm Calm - N/A   Overcast
6:12 AM 33.8 °F 30.8 °F 30.2 °F 87% 29.25 in 0.5 mi NW 3.5 mph - N/A Fog Fog
6:33 AM 33.8 °F - 28.4 °F 81% 29.25 in 0.1 mi Calm Calm - N/A Fog Fog
6:53 AM 32.0 °F - 28.9 °F 88% 29.25 in 0.2 mi Calm Calm - N/A Fog Fog
7:37 AM 32.0 °F - 26.6 °F 80% 29.24 in 2.0 mi Calm Calm - N/A Fog Fog
7:53 AM 33.1 °F - 28.0 °F 82% 29.24 in 2.0 mi Calm Calm - N/A Fog Fog
8:53 AM 32.0 °F - 28.9 °F 88% 29.23 in 7.0 mi Calm Calm - N/A   Overcast
9:53 AM 34.0 °F - 30.0 °F 85% 29.23 in 7.0 mi Calm Calm - N/A   Overcast
10:13 AM 33.8 °F - 28.4 °F 81% 29.22 in 10.0 mi Calm Calm - N/A   Overcast
10:53 AM 35.1 °F 32.2 °F 30.9 °F 85% 29.22 in 10.0 mi NW 3.5 mph - N/A   Overcast
11:53 AM 36.0 °F - 30.9 °F 82% 29.22 in 10.0 mi Calm Calm - N/A   Overcast
12:25 PM 37.4 °F - 30.2 °F 75% 29.21 in 10.0 mi Calm Calm - N/A   Mostly Cloudy
12:53 PM 36.0 °F 33.3 °F 30.9 °F 82% 29.21 in 10.0 mi WSW 3.5 mph - N/A   Mostly Cloudy
1:53 PM 36.0 °F 33.3 °F 30.9 °F 82% 29.20 in 10.0 mi SSW 3.5 mph - N/A   Overcast
2:40 PM 35.6 °F - 30.2 °F 81% 29.18 in 10.0 mi Calm Calm - N/A   Overcast
2:53 PM 36.0 °F 33.3 °F 30.9 °F 82% 29.19 in 10.0 mi WNW 3.5 mph - N/A   Overcast
3:53 PM 36.0 °F 33.3 °F 30.9 °F 82% 29.18 in 10.0 mi NNW 3.5 mph - N/A   Overcast
4:53 PM 36.0 °F 32.1 °F 30.9 °F 82% 29.18 in 10.0 mi North 4.6 mph - N/A   Overcast
5:53 PM 36.0 °F 33.3 °F 30.9 °F 82% 29.18 in 10.0 mi NNE 3.5 mph - 0.00 in Rain Light Rain
6:53 PM 36.0 °F 33.3 °F 30.9 °F 82% 29.17 in 10.0 mi NNW 3.5 mph - 0.00 in   Overcast
7:53 PM 35.1 °F - 30.9 °F 85% 29.17 in 10.0 mi Calm Calm - 0.00 in   Overcast
8:53 PM 35.1 °F 30.1 °F 30.0 °F 82% 29.17 in 10.0 mi NE 5.8 mph - N/A   Overcast
9:53 PM 34.0 °F 31.0 °F 30.0 °F 85% 29.18 in 10.0 mi NE 3.5 mph - N/A   Overcast
10:46 PM 33.8 °F - 30.2 °F 87% 29.19 in 10.0 mi Calm Calm - N/A   Overcast
10:53 PM 34.0 °F - 30.0 °F 85% 29.21 in 10.0 mi Calm Calm - N/A   Overcast
11:53 PM 35.1 °F 32.2 °F 30.9 °F 85% 29.24 in 3.0 mi South 3.5 mph - 0.00 in Snow Light Snow